Weather History for KALB - December, 2013

Change the Weather History Date:

Monday, December 23, 2013

  Actual Average Record
Temperature  
Mean Temperature 40 °F 26 °F  
Max Temperature 47 °F 33 °F 64 °F (1990)
Min Temperature 33 °F 19 °F -12 °F (1955)
Degree Days  
Heating Degree Days 25 39  
Month to date heating degree days 837 808  
Since 1 July heating degree days 2207 2212  
Cooling Degree Days 0 0  
Month to date cooling degree days 0 0  
Year to date cooling degree days 763 598  
Moisture  
Dew Point 35 °F    
Average Humidity 79    
Maximum Humidity 93    
Minimum Humidity 64    
Precipitation  
Precipitation 0.23 in 0.09 in 0.85 in (2004)
Month to date precipitation 2.47 2.24  
Year to date precipitation 42.92 38.66  
Snow  
Snow 0.00 in 0.50 in 8.80 in (1947)
Month to date snowfall 18.8 9.4  
Since 1 July snowfall 20.9 12.2  
Snow Depth 0.00 in    
Sea Level Pressure  
Sea Level Pressure 30.05 in    
Wind  
Wind Speed 6 mph (NNW)    
Max Wind Speed 23 mph    
Max Gust Speed 31 mph    
Visibility 6 miles    
Events Fog , Rain    
T = Trace of Precipitation, MM = Missing Value Source: NWS Daily Summary

Daily Weather History Graph

Daily Weather History Graph

Search for Another Location

Airport or City:

Trip Planner

Search our weather history database for the weather conditions in past years. The results will help you decide how hot, cold, wet, or windy it might be!

Date:

Astronomy

Dec. 23, 2013 Rise Set
Actual Time 7:23 AM EST 4:25 PM EST
Civil Twilight 6:51 AM EST 4:57 PM EST
Nautical Twilight 6:15 AM EST 5:33 PM EST
Astronomical Twilight 5:41 AM EST 6:07 PM EST
Moon 10:41 PM EST 10:40 AM EST
Length of Visible Light 10h 06m
Length of Day
9h 02m
Waning Gibbous, 68% of the Moon is Illuminated
Dec 23
Waning Gibbous
Dec 25
Last Quarter
Jan 1
New
Jan 7
First Quarter
Jan 15
Full

Hourly Weather History & Observations

Time (EST) Temp. Windchill Dew Point Humidity Pressure Visibility Wind Dir Wind Speed Gust Speed Precip Events Conditions
12:51 AM 45.0 °F - 39.9 °F 82% 29.95 in 10.0 mi Calm Calm - N/A   Overcast
1:51 AM 44.1 °F - 39.9 °F 85% 29.98 in 10.0 mi Calm Calm - N/A   Overcast
2:51 AM 45.0 °F - 39.9 °F 82% 30.00 in 10.0 mi Calm Calm - N/A   Overcast
3:51 AM 42.1 °F - 39.0 °F 89% 30.02 in 10.0 mi Calm Calm - N/A   Overcast
4:51 AM 43.0 °F - 39.9 °F 89% 30.01 in 10.0 mi Calm Calm - 0.00 in   Overcast
5:51 AM 41.0 °F 39.0 °F 37.9 °F 89% 30.02 in 5.0 mi West 3.5 mph - 0.01 in Rain Light Rain
6:25 AM 39.2 °F 37.0 °F 37.4 °F 93% 30.00 in 3.0 mi East 3.5 mph - 0.05 in Rain Light Rain
6:49 AM 39.2 °F 35.9 °F 37.4 °F 93% 30.01 in 4.0 mi NNW 4.6 mph - 0.06 in Fog , Rain Light Rain
6:50 AM 39.0 °F 35.7 °F 37.0 °F 93% 30.02 in 4.0 mi NNW 4.6 mph - 0.06 in Fog , Rain Light Rain
6:59 AM 39.2 °F - 37.4 °F 93% 30.02 in 2.5 mi Calm Calm - 0.00 in Fog , Rain Light Rain
7:34 AM 39.2 °F - 37.4 °F 93% 30.02 in 1.5 mi Calm Calm - 0.03 in Rain Light Rain
7:51 AM 39.0 °F - 37.0 °F 93% 30.03 in 1.0 mi Calm Calm - 0.04 in Rain Light Rain
8:51 AM 39.0 °F - 37.0 °F 93% 30.03 in 0.8 mi Calm Calm - 0.01 in Rain Light Rain
9:45 AM 39.2 °F 35.9 °F 37.4 °F 93% 30.00 in 0.5 mi North 4.6 mph - 0.03 in Rain Light Rain
9:51 AM 39.0 °F 35.7 °F 37.0 °F 93% 30.02 in 0.5 mi North 4.6 mph - 0.03 in Fog , Rain Light Rain
9:59 AM 39.2 °F 37.0 °F 37.4 °F 93% 30.01 in 0.2 mi North 3.5 mph - 0.00 in Fog , Rain Light Rain
10:13 AM 37.4 °F 33.8 °F 35.6 °F 93% 30.00 in 0.2 mi North 4.6 mph - 0.00 in Fog Fog
10:30 AM 37.4 °F 33.8 °F 35.6 °F 93% 30.01 in 0.8 mi NNW 4.6 mph - 0.00 in   Overcast
10:51 AM 39.0 °F 36.8 °F 37.0 °F 93% 30.02 in 1.2 mi NNE 3.5 mph - 0.00 in   Overcast
11:51 AM 39.9 °F - 37.9 °F 93% 30.01 in 1.2 mi Calm Calm - 0.00 in Rain Light Rain
12:11 PM 39.2 °F - 37.4 °F 93% 30.01 in 3.0 mi Calm Calm - 0.00 in Rain Light Rain
12:24 PM 39.2 °F - 37.4 °F 93% 30.01 in 2.5 mi Calm Calm - 0.00 in Rain Light Rain
12:34 PM 41.0 °F - 37.4 °F 87% 30.02 in 1.8 mi Calm Calm - 0.01 in Rain Light Rain
12:51 PM 41.0 °F - 39.0 °F 93% 30.01 in 2.5 mi Calm Calm - 0.02 in Rain Light Rain
1:34 PM 42.8 °F - 39.2 °F 87% 30.00 in 5.0 mi Calm Calm - 0.03 in Fog , Rain Light Rain
1:51 PM 42.1 °F 39.2 °F 39.0 °F 89% 30.00 in 5.0 mi North 4.6 mph - 0.03 in Fog , Rain Light Rain
2:51 PM 42.1 °F 36.1 °F 37.9 °F 85% 30.02 in 10.0 mi WNW 10.4 mph - 0.03 in Fog , Rain Light Rain
3:51 PM 39.9 °F 32.1 °F 35.1 °F 83% 30.05 in 10.0 mi WNW 13.8 mph - 0.00 in Fog Overcast
4:51 PM 39.9 °F 35.1 °F 34.0 °F 79% 30.09 in 10.0 mi West 6.9 mph - N/A   Overcast
5:51 PM 39.9 °F 35.8 °F 32.0 °F 73% 30.13 in 10.0 mi WNW 5.8 mph - N/A   Overcast
6:51 PM 37.9 °F 30.0 °F 28.9 °F 70% 30.16 in 10.0 mi NW 12.7 mph 23.0 mph N/A   Overcast
7:51 PM 37.0 °F 26.2 °F 27.0 °F 67% 30.17 in 10.0 mi NW 21.9 mph 31.1 mph N/A   Overcast
8:51 PM 36.0 °F 26.0 °F 24.1 °F 62% 30.18 in 10.0 mi NW 17.3 mph 23.0 mph N/A   Overcast
9:51 PM 35.1 °F 28.6 °F 25.0 °F 67% 30.18 in 10.0 mi WNW 8.1 mph - N/A   Overcast
10:51 PM 35.1 °F 27.9 °F 26.1 °F 70% 30.20 in 10.0 mi NW 9.2 mph - N/A   Overcast
11:51 PM 34.0 °F 28.0 °F 25.0 °F 70% 30.20 in 10.0 mi NW 6.9 mph - N/A   Overcast